Weather History for Baker, MT

Change the Weather History Date:

Friday, September 6, 2013

  Actual Average Record
Temperature  
Mean Temperature 82 °F -  
Max Temperature 96 °F 81 °F 96 °F (2013)
Min Temperature 68 °F 47 °F 36 °F (2008)
Cooling Degree Days 17    
Growing Degree Days 32 (Base 50)    
Moisture  
Dew Point 60 °F    
Average Humidity 53    
Maximum Humidity 81    
Minimum Humidity 24    
Precipitation  
Precipitation 0.09 in - - ()
Sea Level Pressure  
Sea Level Pressure 29.93 in    
Wind  
Wind Speed 7 mph (NE)    
Max Wind Speed 14 mph    
Max Gust Speed 21 mph    
Visibility 10 miles    
Events Rain , Thunderstorm    
Averages and records for this station are not official NWS values.
T = Trace of Precipitation, MM = Missing Value Source: NWS Daily Summary

Daily Weather History Graph

Daily Weather History Graph

Search for Another Location

Airport:

Trip Planner

Search our weather history database for the weather conditions in past years. The results will help you decide how hot, cold, wet, or windy it might be!

Date:

Astronomy

Sep. 06, 2013 Rise Set
Actual Time 6:24 AM MDT 7:25 PM MDT
Civil Twilight 5:53 AM MDT 7:56 PM MDT
Nautical Twilight 5:16 AM MDT 8:32 PM MDT
Astronomical Twilight 4:37 AM MDT 9:11 PM MDT
Moon 7:46 AM MDT (9/6) 7:42 PM MDT (9/6)
Length of Visible Light 14h 02m
Length of Day
13h 01m
New Moon, 2% of the Moon is Illuminated
Sep 6
New Moon
Sep 12
First Quarter
Sep 19
Full
Sep 26
Last Quarter
Oct 4
New

Hourly Weather History & Observations

Time (MDT) Temp. Heat Index Dew Point Humidity Pressure Visibility Wind Dir Wind Speed Gust Speed Precip Events Conditions
12:51 AM 73.0 °F - 59.0 °F 61% 29.89 in 10.0 mi SE 6.9 mph - N/A   Clear
1:51 AM 75.0 °F - 59.0 °F 57% 29.87 in 10.0 mi SSE 13.8 mph - N/A   Clear
2:51 AM 73.0 °F - 59.0 °F 61% 29.87 in 10.0 mi SE 8.1 mph - N/A   Clear
3:51 AM 70.0 °F - 59.0 °F 68% 29.86 in 10.0 mi ESE 8.1 mph - N/A   Clear
4:51 AM 73.9 °F - 60.1 °F 62% 29.90 in 10.0 mi North 5.8 mph - N/A   Clear
5:41 AM 75.2 °F - 60.8 °F 61% 30.01 in 10.0 mi North 8.1 mph - N/A Thunderstorm Clear
5:51 AM 75.0 °F - 61.0 °F 62% 29.93 in 10.0 mi NW 9.2 mph - N/A Thunderstorm Clear
5:56 AM 75.2 °F - 60.8 °F 61% 30.02 in 10.0 mi NNW 6.9 mph - N/A   Clear
6:03 AM 75.2 °F - 60.8 °F 61% 30.01 in 10.0 mi NE 6.9 mph - N/A Thunderstorm Clear
6:51 AM 71.1 °F - 63.0 °F 75% 29.94 in 5.0 mi NE 12.7 mph - 0.06 in Rain , Thunderstorm Heavy Thunderstorms and Rain
7:51 AM 69.1 °F - 63.0 °F 81% 29.91 in 10.0 mi SE 8.1 mph 20.7 mph 0.03 in   Partly Cloudy
8:51 AM 68.0 °F - 62.1 °F 81% 29.98 in 10.0 mi West 6.9 mph - N/A   Clear
9:51 AM 75.9 °F - 63.0 °F 64% 29.96 in 10.0 mi WSW 4.6 mph - N/A   Clear
10:51 AM 84.0 °F 85.4 °F 64.0 °F 51% 29.94 in 10.0 mi SSE 3.5 mph - N/A   Clear
11:51 AM 88.0 °F 87.1 °F 59.0 °F 37% 29.93 in 10.0 mi South 5.8 mph - N/A   Clear
12:51 PM 91.9 °F 90.8 °F 57.9 °F 32% 29.92 in 10.0 mi Variable 3.5 mph - N/A   Clear
1:51 PM 93.9 °F 92.6 °F 57.0 °F 29% 29.90 in 10.0 mi Variable 5.8 mph - N/A   Clear
2:51 PM 93.9 °F 92.9 °F 57.9 °F 30% 29.90 in 10.0 mi NNW 4.6 mph - N/A   Clear
3:51 PM 96.1 °F 93.8 °F 54.0 °F 24% 29.89 in 10.0 mi Variable 3.5 mph - N/A   Clear
4:51 PM 93.9 °F 92.6 °F 57.0 °F 29% 29.88 in 10.0 mi North 6.9 mph - N/A   Clear
5:51 PM 91.9 °F 90.8 °F 57.9 °F 32% 29.86 in 10.0 mi North 5.8 mph - N/A   Clear
6:51 PM 84.0 °F 83.8 °F 59.0 °F 43% 29.89 in 10.0 mi North 6.9 mph - N/A   Clear
7:51 PM 79.0 °F - 57.9 °F 48% 29.91 in 10.0 mi NNE 9.2 mph - N/A   Clear
8:51 PM 75.9 °F - 57.9 °F 54% 29.93 in 10.0 mi NE 3.5 mph - N/A   Clear
9:51 PM 73.9 °F - 59.0 °F 59% 29.94 in 10.0 mi NE 5.8 mph - N/A   Clear
10:51 PM 73.9 °F - 60.1 °F 62% 29.92 in 10.0 mi ENE 3.5 mph - N/A   Clear
11:44 PM 75.2 °F - 59.0 °F 57% 30.01 in 10.0 mi ESE 3.5 mph - N/A Thunderstorm Scattered Clouds
11:51 PM 75.0 °F - 59.0 °F 57% 29.93 in 10.0 mi SSW 12.7 mph 16.1 mph N/A Thunderstorm Partly Cloudy
11:59 PM 78.8 °F - 59.0 °F 51% 30.01 in 10.0 mi South 5.8 mph - N/A   Partly Cloudy